STARLINK-31724, 59554

Orbit data source: Space-Track

STARLINK-31724, 59554 is a payload satellite owned by SpaceX/Seattle (US) in LEO that was launched on Thu, 18 Apr 2024 UTC via an FALCON 9 launch vehicle from the Air Force Eastern Test Range (AFETR). Payload-class satellites include a variety of spacecraft equipped with specific instruments for various scientific and technological missions. These include communications satellites like Starlink; space stations such as the ISS; scientific satellites like the Hubble; Earth observation satellites from companies like Planet Labs, Umbra, and HawkEye 360; GPS; miniature CubeSats for education and research; and military/defense satellites.

Loading next visibility...
Identifier
59554, 2024-074W
Orbit
LEO
Country
Flag of USUS
Related business
Manufacturer
SpaceX/Seattle
Mission
Operational Commercial Communications
Bus & Motor
STARLINK V2M, Unknown motor
Mass
730 kg wet, ~700 kg dry
Launch date (UTC)
2024-04-18 (2 years ago)
Launch vehicle
FALCON 9
Launch site
Air Force Eastern Test Range (AFETR)
Object type
Payload
Rocket body
Debris
Shape & HBR
Box + 2 Pan, 17.7 m
Radar Cross Section
33.884 m², Large (>1 m²)

Expand to show TLE details & history
Last TLE update: 2 days ago

TLE from 2 days ago
0 STARLINK-31724
1 59554U 24074W   26171.14601593  .00002506  00000-0  10050-3 0  9993
2 59554  43.0034  88.8716 0000899 274.6398  85.4351 15.27603792122099
Epoch: 2026-06-20T03:30Z
TLE epoch observation values (Epoch: 2026-06-20T03:30:15.776Z)
Latitude
-0.00001°
Longitude
127.94102°
Altitude
482.705 km
Speed
7.626 km/s
True Right ascension
05h 55m 29s
True Declination
0° 00' 00"
Sunlit
Object was in daylight at epoch
Visualization orbit readout
Latitude
Unknown
Longitude
Unknown
Altitude
Unknown
Speed
Unknown
Apparent Right ascension
Unknown
Apparent Declination
Unknown
Sunlit
N/A
Visualization observer readout
Local Sidereal Time
21:23:42
Azimuth
Unknown
Elevation
Unknown
Doppler factor
Unknown
Orbital elements
Apogee altitude
485.539 km
Perigee altitude
484.305 km
Semi-major axis
6,863.059 km
Eccentricity
0.00009
Inclination
43.0034°
RAAN
88.8716°
Arg. of periapsis
274.6398°
True anomaly
85.44537°
Mean anomaly
85.4351°
Eccentric anomaly
85.44023°
Mean motion
3.81739 °/min
Orbital period
94.31 mins
BSTAR
0.0001005
Loading maneuver chart data...
Computing Atmospheric mass density...
Loading historical data...
Loading historical data...
Loading historical data...
Loading historical data...
Loading historical data...
Loading historical data...
Loading historical data...

Documentation

Showing up to 5 results
|